Location: Battery Park City
(40.7115°N, 74.0163°W)
Time: 06:13:55
(UTC+00:00)

BREEZE-M R/B - Pass Details

Date: 08 December 2019
Orbit: 310 x 4546 km, 49.7° (Epoch: 19 January)

Event Time Altitude Azimuth Distance (km) Brightness Sun altitude
Rises 22:33:15 0° 280° (W) 4,263 8.5 -12.0°
Reaches altitude 10° 22:37:28 10° 293° (WNW) 2,604 7.0 -12.7°
Maximum altitude 22:41:59 24° 347° (NNW) 1,231 4.5 -13.5°
Enters shadow 22:43:50 17° 30° (NNE) 1,317 4.3 -13.9°
